Cloud_Cover
29 5 6 3 0 0 0 0 0 0 0 0 0 0 0 0 0 0 0 0 0 0 0 0 0 0 0 0 0 0 0 0 0
7 4 0 0 0 0 0 0 0 0 0 0 0 0 0 0 0 0 0 0 0 0 0 0 0 0 0 0 0 0 0 0 0
53 26 0 0 0 0 0 0 0 0 0 0 0 0 0 0 0 0 0 0 0 0 0 0 0 0 0 0 0 0 0 0 0
67 70 1 0 0 0 0 0 0 0 0 0 0 0 0 0 0 0 0 0 0 0 0 0 0 0 0 0 0 0 0 0 0
2 7 5 0 0 0 0 0 0 0 0 0 0 0 0 0 0 0 0 0 0 0 0 0 0 0 0 0 0 0 0 0 0
1 5 5 2 0 0 0 0 0 0 0 0 0 0 0 0 0 0 5 4 0 0 0 0 0 0 0 0 0 0 0 0 0
0 86 26 5 4 0 0 0 0 0 0 0 0 0 0 0 0 0 4 10 6 0 0 0 0 0 0 0 0 0 0 0 0
0 4 39 5 5 0 0 0 0 0 0 0 0 0 0 0 0 0 0 4 16 56 41 5 0 0 0 0 0 0 0 0 0
0 0 5 5 5 0 0 0 0 0 0 0 0 0 0 0 0 0 0 3 5 5 5 0 0 0 0 0 0 0 0 0 0
0 0 4 10 5 5 1 0 0 0 0 0 0 0 0 0 1 0 0 0 0 0 0 0 0 0 0 1 0 0 0 0 0
0 0 0 0 0 0 0 11 0 0 0 0 0 0 0 5 5 4 1 0 0 0 1 0 0 0 2 4 2 0 0 0 0
0 0 0 0 0 0 5 6 88 48 0 0 0 0 0 0 0 3 2 0 0 0 0 5 5 2 0 0 2 0 0 0 0
0 0 0 0 0 0 5 55 98 37 32 43 52 4 0 0 0 0 0 0 2 2 1 0 3 5 13 2 0 2 5 42 5
0 0 0 0 0 0 0 2 6 26 22 5 1 0 0 0 3 0 1 2 5 5 21 10 85 94 9 0 0 6 33 6 0
0 0 0 0 0 0 0 0 0 2 5 57 86 58 21 5 5 5 5 5 5 7 78 100 21 5 2 0 0 35 45 38 55
0 0 0 0 0 0 0 0 0 0 0 0 0 2 5 5 5 5 5 6 53 18 29 5 0 12 21 30 23 2 69 68 53
0 5 5 0 0 0 0 0 0 0 0 0 0 0 0 0 0 0 0 0 0 0 0 0 23 37 13 3 3 12 10 15 59
14 1 4 1 5 5 0 0 0 0 0 0 0 0 0 0 0 3 0 8 42 2 0 12 0 16 4 30 5 22 60 44 22
53 0 0 0 5 5 5 3 0 0 0 0 0 0 0 0 0 0 0 0 51 85 61 91 77 54 86 95 89 100 100 100 100
2 5 0 4 5 0 6 44 5 0 0 0 0 0 0 0 0 0 0 0 0 36 49 95 100 85 100 100 100 100 100 100 100